Location: GMARS
(34.2910°N, 116.3838°W)
Time: 05:29:46
(UTC-07:00)

Daily predictions for brighter satellites

Satellite Brightness Start Highest point End
(mag) Time Altitude Azimuth Time Altitude Azimuth Time Altitude Azimuth
Mayak 0.7 00:10:14 10° N 00:12:11 27° N 00:12:11 27° N
Terra 4.4 00:15:53 11° W 00:15:53 11° W 00:16:30 10° WNW
Meteor 2-10 Rocket 4.3 00:11:06 10° N 00:14:54 48° NNE 00:14:54 48° NNE
H-2A R/B 4.1 00:20:55 24° NNE 00:20:55 24° NNE 00:22:44 10° N
Cosmos 2369 Rocket 2.9 00:33:45 48° NE 00:33:45 48° NE 00:37:49 10° NNE
ADEOS Rocket 3.3 00:29:14 10° N 00:35:11 63° WNW 00:35:11 63° WNW
CENTAUR R/B 3.3 00:33:30 10° NW 00:41:31 58° WSW 00:41:31 58° WSW
USA 234 3.2 00:47:22 10° NE 00:53:39 83° NNE 00:53:39 83° NNE
Cosmos 2082 Rocket 4.1 00:50:21 10° NW 00:52:46 19° WNW 00:52:46 19° WNW
Cosmos 1943 Rocket 2.7 01:12:13 53° NNW 01:12:13 53° NNW 01:16:38 10° NNE
Cosmos 2181 Rocket 4.4 01:20:57 53° WNW 01:20:57 53° WNW 01:26:34 10° N
MOS 1 Rocket 4.5 01:18:08 10° N 01:21:16 40° N 01:21:16 40° N
Meteor 2-15 Rocket 4.5 01:41:20 70° ENE 01:41:20 70° ENE 01:47:00 10° N
Resurs 1-4 Rocket 4.0 01:37:21 10° NE 01:40:59 19° E 01:40:59 19° E
Lacrosse 4 Rocket 3.1 01:43:22 32° NNE 01:43:22 32° NNE 01:45:50 10° NNE
Cosmos 2098 Rocket 4.5 01:35:57 10° NNW 01:42:30 52° WNW 01:42:30 52° WNW
SL-8 Rocket 4.4 01:37:01 10° NNW 01:42:25 52° WNW 01:42:25 52° WNW
Cosmos 2218 Rocket 4.2 01:38:02 10° NNW 01:43:29 61° WNW 01:43:29 61° WNW
Meteor 2-15 4.4 01:48:10 74° NNW 01:48:10 74° NNW 01:53:46 10° N
ATLAS 2A CENTAUR R/B 4.5 01:59:18 43° S 01:59:54 43° SSE 02:09:07 10° E
Cosmos 1867 3.8 02:08:55 63° NNW 02:08:55 63° NNW 02:13:52 10° NNE
Meteor 1-10 Rocket 4.5 02:09:21 10° N 02:14:54 60° E 02:15:25 57° ESE
Cosmos 2369 Rocket 4.4 02:15:31 13° WNW 02:16:46 14° NW 02:19:41 10° NNW
Nadezhda 3 Rocket 4.0 02:19:19 67° W 02:19:33 67° W 02:25:52 10° N
SL-16 R/B 3.2 02:20:23 31° SE 02:22:58 49° ENE 02:28:52 10° N
Cosmos 1818 3.6 02:19:06 10° NNW 02:23:57 70° NW 02:23:57 70° NW
IRS-1D 4.2 02:26:05 10° NNE 02:30:54 43° E 02:31:15 43° ESE
Cosmos 1862 4.3 02:34:53 43° N 02:34:53 43° N 02:37:37 10° N
Cosmos 1934 Rocket 4.2 02:27:23 10° N 02:33:40 65° E 02:35:28 46° SE
Cosmos 2239 Rocket 4.4 02:28:08 10° N 02:34:21 89° W 02:35:18 67° S
Cosmos 1354 Rocket 4.2 02:36:04 57° ESE 02:36:18 57° ESE 02:41:26 10° NNE
GP-B 4.0 02:32:43 10° N 02:35:53 40° NW 02:35:53 40° NW
Cosmos 1486 Rocket 4.1 02:37:48 64° WNW 02:37:48 64° WNW 02:43:00 10° N
IRS-1C 4.2 02:33:30 10° NNE 02:38:47 64° ESE 02:39:21 60° SE
Cosmos 1869 Rocket 3.9 02:40:25 64° NNE 02:40:25 64° NNE 02:44:09 10° N
UNK 4.0 02:40:47 60° E 02:41:08 62° ENE 02:45:44 10° N
Meteor 1-4 Rocket 3.7 02:46:28 42° NE 02:46:28 42° NE 02:49:09 10° NNE
ADEOS II 4.3 02:43:34 10° NE 02:46:54 17° E 02:50:02 11° SE
Cosmos 968 Rocket 4.4 02:48:18 36° SE 02:49:25 40° E 02:54:18 10° NNE
Cosmos 2221 Rocket 4.1 02:46:20 10° N 02:50:42 54° E 02:51:13 51° ESE
AQUA 3.7 02:46:57 10° N 02:51:41 74° WNW 02:51:41 74° WNW
SL-24 DEB 4.2 02:53:12 73° WNW 02:53:12 73° WNW 02:57:34 10° N
NPP 3.8 02:51:19 10° N 02:56:34 55° WNW 02:57:05 53° W
Cosmos 389 Rocket 4.0 02:57:52 31° E 02:57:52 31° E 03:01:07 10° NNE
H-2A R/B 2.7 02:55:27 10° N 02:58:44 59° NNW 02:58:44 59° NNW
CZ-2D R/B 2.0 02:54:20 10° N 02:59:39 74° WNW 03:00:26 62° SW
GPS 2-04 Rocket1 3.2 03:00:25 58° E 03:00:25 58° E 03:03:47 10° E
Okean 1-7 3.0 02:58:27 10° N 03:02:32 70° WNW 03:02:32 70° WNW
Cosmos 1703 Rocket 4.2 02:59:27 10° NNW 03:02:51 43° WNW 03:02:51 43° WNW
Cosmos 1503 Rocket 3.9 03:03:56 64° WSW 03:04:31 71° WNW 03:09:41 10° NNE
Cosmos 44 Rocket 3.1 03:05:56 73° SW 03:06:24 85° WNW 03:11:23 10° NNE
Cosmos 44 3.7 03:06:34 46° WNW 03:06:54 47° WNW 03:11:38 10° NNE
TIMED 4.4 03:06:53 82° SSE 03:07:02 85° ESE 03:11:25 10° NNE
Cosmos 1821 Rocket 4.5 03:04:50 10° NNW 03:10:43 42° W 03:11:37 39° WSW
Cosmos 1812 3.8 03:09:45 10° N 03:13:25 40° E 03:14:43 30° SE
Cosmos 1727 Rocket 3.9 03:11:04 40° S 03:13:30 85° E 03:19:47 10° N
Cosmos 1697 Rocket 4.0 03:10:47 21° SSE 03:13:35 33° ESE 03:18:34 10° NE
Cosmos 1437 Rocket 3.9 03:15:11 34° WNW 03:15:11 34° WNW 03:18:26 10° N
Cosmos 1184 Rocket 4.2 03:12:57 10° NNW 03:14:52 32° NNW 03:14:52 32° NNW
ARIANE 5 R/B 2.3 03:12:28 10° NNE 03:17:28 86° WNW 03:18:43 52° SSW
Cosmos 540 Rocket 3.3 03:14:47 10° NNW 03:19:52 66° WSW 03:20:58 51° SSW
DASH 4.3 03:17:32 38° SW 03:20:07 61° SSE 03:59:30 10° E
DASH 4.3 03:17:32 38° SW 03:20:07 61° SSE 03:59:31 10° E
Lacrosse 4 Rocket 4.1 03:20:22 10° NW 03:20:39 10° NW 03:20:55 10° NW
Resurs 1-4 Rocket 2.6 03:15:57 10° N 03:20:59 44° WNW 03:22:04 39° WSW
Shenzhou-11 Module 4.0 03:22:40 22° E 03:22:40 22° E 03:24:07 10° E
Cosmos 1733 Rocket 3.0 03:24:32 49° SSE 03:25:36 75° E 03:29:56 10° N
COSMOS 2455 2.9 03:20:37 10° NW 03:26:27 53° WSW 03:28:32 36° SSW
Genesis I 3.2 03:25:52 10° NNW 03:29:57 82° ENE 03:32:18 24° SSE
ATLAS CENTAUR R/B 1.8 03:33:28 39° WNW 03:33:47 40° WNW 03:37:31 10° NNE
Cosmos 1633 2.4 03:35:30 66° WSW 03:35:41 68° W 03:39:17 10° N
Cosmos 2369 3.6 03:33:43 36° SSW 03:36:09 86° ESE 03:41:50 10° NNE
BREEZE-M DEB (TANK) 3.2 03:34:09 10° NW 03:36:54 67° NE 03:44:16 10° SE
Cosmos 2219 3.2 03:32:09 10° NNW 03:37:39 55° WSW 03:40:16 30° S
Meteosat 1 Rocket2 4.3 03:37:55 29° S 03:38:08 29° S 03:41:56 10° ESE
Cosmos 1980 Rocket 3.6 03:36:35 12° SSE 03:40:56 31° ESE 03:45:49 10° NE
Cosmos 1674 Rocket 4.2 03:37:06 10° N 03:41:19 52° E 03:45:05 12° SSE
Cosmos 1908 Rocket 4.5 03:41:33 18° SSE 03:44:37 46° E 03:48:51 10° NNE
NOSS 3-1 (C) 4.3 03:38:46 10° NNW 03:46:38 78° ENE 03:55:15 10° SE
PSLV R/B 2.8 03:55:47 34° WNW 03:56:55 90° SSE 03:59:51 10° ESE
Cosmos 1802 Rocket 4.4 03:51:06 10° N 03:57:16 63° E 04:03:20 10° SSE
CZ-2D R/B 3.7 03:53:32 10° N 03:57:37 53° WNW 03:59:10 33° SW
ADEOS 3.6 03:55:23 10° N 04:00:34 65° WNW 04:03:41 24° SSW
Cosmos 2297 Rocket 2.2 03:55:25 10° NNW 04:01:05 85° ENE 04:06:44 10° SSE
Delta 2 Rocket 3.4 03:57:57 17° W 04:01:12 81° SSW 04:06:06 10° ESE
Cosmos 2278 3.8 03:59:39 26° SW 04:02:48 63° WNW 04:08:25 10° NNE
Cosmos 1271 Rocket 3.1 04:00:36 18° S 04:03:23 63° E 04:07:17 10° NNE
Gbstr 26 Del rocket 2.7 04:04:31 32° SSW 04:06:07 72° SE 04:10:03 10° NE
Helios 1A Rocket 3.2 04:02:27 10° N 04:06:21 49° WNW 04:08:11 27° SW
Cosmos 2061 Rocket 4.2 04:00:18 10° N 04:06:33 75° E 04:12:50 10° S
SL-16 R/B 3.7 04:05:28 20° WSW 04:06:46 21° W 04:11:20 10° NW
Cosmos 783 Rocket 4.4 04:02:58 10° NNW 04:08:12 70° WSW 04:13:23 10° S
Cosmos 2227 Rocket 2.1 04:04:13 10° NNW 04:09:52 73° WSW 04:15:30 10° SSE
USA 81 4.2 04:10:10 20° SSW 04:13:36 53° W 04:18:45 10° N
USA 102 3.3 04:15:16 35° NNW 04:15:16 35° NNW 04:18:16 10° NNW
Cosmos 1459 Rocket 4.0 04:08:15 10° N 04:14:37 76° W 04:20:55 10° S
ATLAS 2A CENTAUR R/B 3.4 04:05:41 15° WSW 04:16:16 51° S 04:22:10 10° ESE
Okean 1 3.2 04:12:41 10° N 04:16:40 88° E 04:20:36 10° S
SL-8 R/B 3.8 04:15:23 10° WNW 04:20:02 50° SW 04:24:39 10° SSE
Cosmos 1656 4.5 04:17:35 19° WSW 04:21:04 37° WNW 04:26:18 10° N
Cosmos 2100 Rocket 4.0 04:15:03 10° NNW 04:21:08 61° W 04:27:15 10° S
USA 229 DEB 4.3 04:15:50 10° NW 04:22:25 38° WSW 04:29:08 10° S
USA 229 4.3 04:15:56 10° NW 04:22:32 38° WSW 04:29:16 10° S
NOSS 3-1 (A) 4.2 04:15:45 10° NNW 04:23:41 87° WSW 04:32:21 10° SSE
UNKNOWN OBJECT B 4.2 04:21:24 10° NNW 04:24:41 25° WNW 04:26:37 17° WSW
Okean O Rocket 4.0 04:22:37 10° NE 04:26:02 21° E 04:29:26 10° SE
NOSS 2-1 (C) 3.7 04:23:13 15° SSW 04:26:03 52° ESE 04:29:40 10° NE
ADEOS II 2.5 04:21:46 10° N 04:26:48 48° WNW 04:30:59 15° SW
NOSS 2-1 (D) 3.6 04:24:32 15° SSW 04:27:23 56° ESE 04:31:02 10° NE
PSLV R/B 3.8 04:23:55 10° NNE 04:28:18 73° ESE 04:32:39 10° S
Cosmos 1536 4.5 04:25:19 10° SSE 04:29:00 34° E 04:32:43 10° NNE
Cosmos 1777 Rocket 4.1 04:25:35 16° SSW 04:29:44 61° WNW 04:34:53 10° N
Aureole 3 4.1 04:26:35 10° S 04:32:42 80° W 04:37:28 10° N
ASTEX 1 3.8 04:28:16 11° SSW 04:32:54 45° W 04:37:41 10° NNW
Okean 3 4.2 04:30:44 10° NNW 04:34:31 33° W 04:38:00 12° SSW
Sich 1 Rocket 3.6 04:30:26 11° SSW 04:34:42 65° W 04:39:06 10° N
GPS 2-04 Rocket1 3.0 04:35:18 10° W 04:39:28 72° N 04:43:28 10° E
Cosmos 1356 3.6 04:38:41 10° N 04:42:10 75° E 04:45:37 10° SSE
Cosmos 2123 Rocket 4.0 04:38:04 10° SSW 04:44:12 65° W 04:50:20 10° N
Lacrosse 5 2.2 04:39:30 10° NW 04:44:33 70° NE 04:49:36 10° SE
Okean 2 Rocket 3.3 04:40:31 10° S 04:44:52 72° E 04:49:18 10° N
Cosmos 2082 3.9 04:40:57 10° NW 04:46:19 46° WSW 04:51:38 10° S
Lacrosse 5 rocket 1.5 04:45:43 11° SW 04:49:53 84° SE 04:54:26 10° NE
SL-24 R/B - RUBIN 2 3.6 04:46:26 10° NW 04:50:46 62° WSW 04:55:22 10° SSE
Cosmos 2322 Rocket 3.6 04:46:43 10° S 04:51:51 37° ESE 04:56:59 10° NE
Cosmos 2360 4.5 04:49:14 10° SW 04:54:46 56° WNW 05:00:23 10° NNE
Shenzhou-11 Module 3.3 04:54:44 10° W 04:57:27 32° NNW 05:00:09 10° NE
Cosmos 1697 Rocket 3.8 04:52:38 10° WSW 04:57:28 29° WNW 05:02:22 10° N
Cosmos 1378 Rocket 4.5 04:54:07 10° NNW 04:58:01 30° W 05:01:53 10° SSW
NOSS 2-1 (E) 3.2 04:56:03 10° SW 04:59:38 64° WNW 05:03:24 10° NNE
Cosmos 1782 Rocket 4.2 04:55:41 10° SSW 04:59:48 38° W 05:03:54 10° N
Iridium 51 4.2 04:57:45 10° N 05:01:20 65° W 05:05:10 10° S
IDEFIX/ARIANE 42P 4.0 04:59:58 10° NNE 05:04:51 39° E 05:09:39 10° SSE
BREEZE-M DEB (TANK) 4.5 05:03:04 10° SSW 05:07:29 68° SE 05:26:37 10° NE
Cosmos 773 Rocket 4.4 05:06:33 10° NNW 05:11:33 43° WSW 05:16:31 10° S
Milstar 3 Cent rocket 3.7 04:58:14 10° W 05:12:28 58° SSW 05:19:15 10° ESE
